Tracking 29892 objects as of 21-Nov-2024
HD Live streaming from Space Station
objects crossing your sky now

SL-14 R/B

Track SL-14 R/B now!
10-day predictions
SL-14 R/B is classified as:


NORAD ID: 16792
Int'l Code: 1986-046B
Perigee: 604.8 km
Apogee: 637.7 km
Inclination: 82.5 °
Period: 97.0 minutes
Semi major axis: 6992 km
RCS: 5.061 m2 (large)
Launch date: June 12, 1986
Source: Commonwealth of Independent States (former USSR) (CIS)
Launch site: PLESETSK MISSILE AND SPACE COMPLEX (PKMTR)

Note: This is a ROCKET BODY
Your satellite tracking list
Your tracking list is empty




NASA's NSSDC Master Catalog

Two Line Element Set (TLE):
1 16792U 86046B   24325.92887777  .00000818  00000-0  93121-4 0  9997
2 16792  82.4816 167.5038 0023538 356.8519   3.2545 14.84826211 56089
Source of the keplerian elements: AFSPC